TimeMST,TemperatureF,Dew PointF,Humidity,Sea Level PressureIn,VisibilityMPH,Wind Direction,Wind SpeedMPH,Gust SpeedMPH,PrecipitationIn,Events,Conditions,WindDirDegrees,DateUTC
12:51 AM,37.9,7.0,28,30.07,10.0,Calm,Calm,-,N/A,,Clear,0,2013-02-17 07:51:00
1:51 AM,37.9,7.0,28,30.05,10.0,Calm,Calm,-,N/A,,Clear,0,2013-02-17 08:51:00
2:51 AM,36.0,7.0,30,30.03,10.0,NW,3.5,-,N/A,,Clear,310,2013-02-17 09:51:00
3:51 AM,30.0,5.0,35,30.01,10.0,NNE,3.5,-,N/A,,Clear,30,2013-02-17 10:51:00
4:51 AM,28.0,6.1,39,30.01,10.0,ENE,4.6,-,N/A,,Clear,60,2013-02-17 11:51:00
5:51 AM,28.0,3.9,36,30.01,10.0,Calm,Calm,-,N/A,,Clear,0,2013-02-17 12:51:00
6:51 AM,28.9,3.9,35,30.01,10.0,North,4.6,-,N/A,,Clear,360,2013-02-17 13:51:00
7:51 AM,30.9,3.9,32,30.01,10.0,NNE,5.8,-,N/A,,Partly Cloudy,30,2013-02-17 14:51:00
8:51 AM,39.9,7.0,26,30.00,10.0,NE,3.5,-,N/A,,Partly Cloudy,40,2013-02-17 15:51:00
9:51 AM,46.9,9.0,21,29.98,10.0,Calm,Calm,-,N/A,,Partly Cloudy,0,2013-02-17 16:51:00
10:51 AM,53.1,8.1,16,29.95,10.0,SSW,6.9,-,N/A,,Partly Cloudy,210,2013-02-17 17:51:00
11:51 AM,57.9,7.0,13,29.90,10.0,South,9.2,-,N/A,,Partly Cloudy,170,2013-02-17 18:51:00
12:51 PM,-9999,-9999,N/A,29.85,10.0,SSW,6.9,-,N/A,,Partly Cloudy,200,2013-02-17 19:51:00
1:51 PM,64.0,5.0,10,29.80,10.0,South,6.9,-,N/A,,Scattered Clouds,180,2013-02-17 20:51:00
2:51 PM,69.1,-0.0,6,29.76,10.0,WSW,11.5,20.7,N/A,,Partly Cloudy,240,2013-02-17 21:51:00
3:51 PM,69.1,3.0,7,29.75,10.0,WSW,17.3,-,N/A,,Partly Cloudy,250,2013-02-17 22:51:00
4:51 PM,66.9,5.0,9,29.74,10.0,WSW,10.4,-,N/A,,Scattered Clouds,240,2013-02-17 23:51:00
5:51 PM,63.0,6.1,11,29.74,10.0,SW,11.5,-,N/A,,Scattered Clouds,220,2013-02-18 00:51:00
6:51 PM,62.1,7.0,11,29.75,10.0,WSW,16.1,19.6,N/A,,Partly Cloudy,240,2013-02-18 01:51:00
7:51 PM,62.1,6.1,11,29.76,10.0,WSW,18.4,-,N/A,,Partly Cloudy,240,2013-02-18 02:51:00
8:51 PM,61.0,9.0,13,29.75,10.0,WSW,19.6,-,N/A,,Scattered Clouds,240,2013-02-18 03:51:00
10:51 PM,60.1,8.1,13,29.74,10.0,West,19.6,24.2,N/A,,Mostly Cloudy,260,2013-02-18 05:51:00
11:51 PM,60.1,3.0,10,29.73,10.0,West,21.9,36.8,N/A,,Partly Cloudy,280,2013-02-18 06:51:00